Theta_e
331 330 334 325 325 323 319 318 303 309 306 296 295 297 294 302 303 301 300 303 300 304 306 307 304 306 303 301 304 304 304 302 302 297 299 317 330 338 337 336 340 341 343 349 349 350 351 350 353 354 353 353 352 352 351 351 351 350 350 349 348 348 348 348 348 349 348 349 349 349 348 348 348 348 349 350 349 347 347 348 346 345 345 345 345 345 344 341 340 339 338 338 335 336 337 338 338
323 322 323 325 324 324 315 316 306 300 301 293 294 296 297 301 302 299 299 301 302 304 305 304 305 305 307 307 305 305 305 307 309 309 318 326 329 331 338 337 340 342 344 348 349 350 351 351 351 354 354 353 352 351 351 351 351 350 349 349 348 347 348 348 348 348 348 348 348 348 347 347 347 348 348 349 348 348 346 346 346 346 345 345 345 344 342 340 337 336 335 334 335 335 336 337 338
321 321 323 322 322 319 315 315 301 298 295 290 292 295 298 298 298 300 302 303 305 306 306 305 306 306 306 306 304 303 298 310 312 315 316 327 324 325 333 339 336 344 344 348 349 348 349 349 348 354 354 353 352 351 351 351 350 350 349 348 347 347 347 348 348 348 348 348 348 347 348 348 348 347 347 348 346 348 347 346 345 345 345 345 345 343 340 339 337 334 332 332 333 334 336 337 338
326 325 323 319 316 319 311 307 303 298 295 292 291 298 298 298 298 301 303 304 304 305 306 305 303 306 305 303 304 308 306 308 314 316 314 321 325 329 330 338 335 339 343 347 347 348 348 347 348 354 353 352 352 351 351 351 351 350 349 348 348 348 348 348 348 348 348 347 347 346 347 347 347 347 347 348 348 347 347 345 345 344 345 345 345 342 340 339 337 334 330 331 333 333 335 337 337
324 328 326 319 319 313 310 307 299 297 292 294 291 298 298 299 300 301 303 304 304 304 304 305 303 306 307 305 307 302 301 312 315 322 323 328 332 335 337 339 336 341 342 343 345 348 349 346 349 352 354 352 352 352 351 350 351 350 350 349 349 348 347 348 348 348 348 347 346 346 346 346 347 346 347 347 347 347 345 344 344 344 344 344 344 343 342 339 337 334 330 330 332 333 333 335 335
327 323 330 323 312 315 310 299 299 295 297 299 294 296 299 300 301 302 303 303 304 302 304 304 303 304 303 306 310 304 311 303 313 324 326 328 333 339 335 334 335 339 342 344 343 350 349 345 348 352 353 351 351 352 351 351 350 350 350 348 348 348 348 347 347 347 347 347 346 345 346 346 346 346 346 346 346 345 345 344 344 344 343 343 343 343 342 340 337 335 330 329 331 331 333 334 334
322 318 320 322 318 315 306 300 296 295 297 300 297 298 299 300 301 301 301 302 302 302 305 303 305 305 302 306 310 316 322 321 317 325 330 333 336 338 340 335 336 338 341 343 350 351 348 345 351 353 352 351 350 350 351 350 350 350 350 348 348 348 348 348 347 347 347 346 346 345 345 345 345 345 347 346 345 344 343 343 343 343 342 342 341 342 341 339 337 335 331 330 331 331 331 333 334
326 319 319 310 308 304 300 299 297 297 297 302 301 300 301 302 304 303 301 302 300 300 303 305 304 302 301 308 303 315 323 325 327 330 331 332 336 336 339 339 335 336 341 347 349 347 345 345 350 352 352 352 351 350 350 349 349 350 351 349 348 348 348 348 347 347 347 346 345 345 346 345 345 346 346 346 345 344 344 344 343 343 342 341 340 340 339 338 336 334 331 329 330 330 330 332 333
322 316 321 312 304 305 299 297 296 299 299 301 301 304 308 304 304 303 300 301 302 302 302 303 302 300 301 305 304 309 313 322 326 330 332 333 334 334 338 339 339 340 343 347 348 347 347 341 347 350 350 351 351 351 349 350 349 350 350 350 348 348 348 348 347 347 347 346 345 346 345 345 344 344 344 344 344 344 343 343 343 342 342 341 339 339 338 337 335 333 331 329 329 329 330 331 331
314 313 306 308 307 299 298 296 295 297 299 300 300 301 302 304 303 303 302 301 302 302 303 304 303 299 302 301 303 305 307 316 320 326 332 333 334 334 335 337 338 340 341 342 349 348 345 344 342 346 348 351 351 351 349 349 348 349 350 349 349 349 349 348 347 347 346 346 347 346 345 344 344 344 344 344 343 343 343 342 342 341 341 339 338 338 337 336 334 332 330 329 328 327 328 329 330
309 314 315 305 300 297 297 295 297 299 299 301 301 304 303 303 304 303 302 302 304 302 303 303 303 300 302 302 301 309 309 315 318 320 328 333 333 333 333 335 336 339 340 341 343 345 345 344 339 339 344 347 349 350 349 349 348 348 349 350 349 349 349 348 348 348 347 347 347 346 345 344 344 344 344 344 343 342 342 341 341 341 340 339 338 337 336 335 334 331 327 326 326 327 327 327 328
307 307 309 300 298 298 296 296 298 298 300 300 299 303 302 304 304 302 302 301 302 302 302 303 301 303 302 302 302 304 307 307 314 323 326 331 333 333 333 333 335 336 338 338 339 339 346 344 343 338 337 342 343 346 347 347 348 348 349 349 349 349 349 348 348 349 347 347 346 345 345 345 344 343 343 344 343 342 341 341 341 340 339 338 337 336 336 335 333 330 326 323 322 323 324 325 325
311 307 300 297 298 296 297 297 297 297 298 298 299 302 303 303 302 302 302 302 302 302 301 304 304 305 299 302 303 306 305 307 309 321 328 326 332 334 333 333 334 335 336 335 337 337 339 344 344 345 337 332 336 340 341 343 345 346 347 348 348 348 348 349 349 348 347 347 346 344 344 343 343 343 342 342 343 342 341 341 340 339 338 337 337 336 335 334 332 329 326 322 320 320 321 322 322
313 308 306 300 301 297 297 297 297 295 295 298 300 302 304 303 302 302 301 301 301 300 305 307 306 302 302 303 303 303 303 308 309 319 327 329 329 333 333 332 331 331 333 335 334 335 335 337 344 344 344 344 346 339 333 337 341 344 345 343 344 345 346 347 347 347 347 346 344 342 341 339 339 340 342 342 342 341 341 341 340 338 338 336 336 335 335 333 331 329 325 320 318 318 319 318 318
311 308 306 302 296 295 299 295 296 295 295 299 301 302 302 304 304 303 302 300 301 305 305 307 307 303 297 300 300 303 304 307 310 319 328 329 328 330 332 331 332 331 331 333 333 333 334 335 337 340 345 345 344 345 346 340 335 338 340 340 341 340 343 343 343 343 341 341 340 337 336 334 332 332 334 335 337 336 335 335 339 338 337 336 336 335 334 332 331 329 325 320 316 316 316 316 314
314 307 306 300 295 293 297 296 299 297 295 300 302 302 302 303 305 303 303 304 304 309 307 301 305 301 303 302 302 304 306 309 311 319 324 327 327 328 330 329 330 330 329 330 332 333 334 333 335 336 339 344 342 341 343 345 334 333 337 337 337 339 339 339 339 336 332 332 332 330 328 329 329 330 326 331 330 333 333 333 335 337 336 336 335 335 334 332 331 328 324 319 317 316 315 314 314
314 312 298 296 295 293 296 298 297 292 298 300 303 302 300 300 305 304 306 307 303 304 303 304 303 306 303 303 305 307 308 310 313 317 320 320 322 317 314 318 320 322 327 325 326 330 331 332 334 335 336 338 341 341 341 345 339 331 332 331 332 334 336 334 333 325 322 321 324 322 325 336 335 332 333 333 324 333 324 326 332 335 336 335 335 334 333 332 330 328 324 320 317 315 317 315 315
312 305 300 296 296 294 299 298 299 300 299 299 301 302 302 299 303 304 305 303 302 303 302 304 305 305 305 306 307 308 310 310 310 310 311 310 311 309 309 310 311 312 313 315 316 317 320 332 333 333 334 336 338 341 343 346 340 337 341 338 336 332 330 326 331 338 333 335 324 326 336 337 338 336 335 331 332 330 327 325 327 332 335 334 333 334 333 331 330 328 325 321 318 318 317 308 306
309 300 298 295 296 297 300 301 301 300 300 302 302 302 301 300 303 302 300 300 301 301 301 303 302 304 305 306 306 307 308 309 309 310 310 309 309 309 309 311 311 311 312 313 315 316 317 318 321 329 333 334 336 337 341 342 342 343 343 342 340 334 335 335 339 340 340 340 338 337 335 337 338 338 335 333 333 326 328 324 326 330 332 331 331 333 332 331 329 328 326 323 320 319 313 306 304
305 300 297 296 301 298 301 303 301 302 303 301 301 301 300 301 302 305 300 298 301 299 298 300 302 302 302 304 305 306 307 308 309 309 309 309 309 309 308 309 309 310 313 313 316 320 318 318 319 319 323 333 334 335 338 337 342 343 341 343 341 340 340 339 340 340 340 339 340 340 338 336 338 337 330 327 329 331 327 322 324 324 326 326 325 328 329 330 329 327 326 324 323 318 316 312 307
304 299 297 300 299 298 299 302 303 302 302 302 301 301 300 302 302 302 300 297 299 299 300 300 300 301 302 303 304 305 306 306 308 308 308 308 309 309 309 309 309 311 312 314 315 317 317 317 318 319 320 327 333 334 334 335 336 338 339 341 340 340 339 341 340 339 338 337 338 337 337 337 338 336 335 333 333 332 328 328 327 327 327 327 324 328 326 325 323 320 319 318 318 317 315 315 313
304 298 301 300 298 299 301 302 302 301 301 300 301 298 300 303 303 300 300 296 296 299 300 301 302 301 302 302 304 305 305 306 306 307 307 307 308 308 308 308 310 311 312 313 313 314 315 317 318 318 318 319 328 333 334 333 336 335 336 338 340 339 337 338 338 338 337 337 336 337 336 337 336 336 335 333 333 334 330 329 328 328 328 328 326 329 327 326 327 323 321 319 317 317 315 313 311
297 300 300 300 300 300 303 303 302 300 302 300 300 301 302 301 300 302 302 300 299 301 302 302 302 302 303 304 304 304 304 304 305 305 306 306 307 308 308 308 309 310 311 312 313 314 315 316 317 317 316 317 322 333 334 333 333 335 335 335 336 337 338 336 335 337 337 338 337 336 334 333 333 332 334 334 332 334 331 329 328 329 330 328 327 328 329 330 325 321 319 319 318 316 314 312 312
301 296 300 300 302 301 304 302 301 300 300 300 302 302 300 300 297 301 300 300 302 302 302 302 302 303 304 303 303 303 304 304 304 306 307 306 307 308 308 308 310 311 311 312 312 314 314 315 317 318 316 316 320 331 333 332 333 334 335 335 336 334 335 336 336 333 333 332 333 335 334 335 332 332 332 333 333 332 332 331 330 330 330 331 331 330 329 325 322 320 320 318 318 316 314 314 312
300 300 301 301 301 302 302 301 300 301 301 301 302 299 299 300 300 300 299 300 301 301 302 302 302 302 302 302 302 303 303 304 304 306 308 306 307 309 309 309 310 311 311 311 312 314 316 317 319 318 315 315 320 329 331 332 333 332 328 327 327 326 329 329 330 329 328 328 329 329 330 333 333 332 330 330 330 330 330 332 330 329 330 330 329 329 327 323 321 321 319 318 318 316 314 313 313
301 300 301 302 301 303 301 301 301 300 302 302 299 298 300 301 301 299 300 301 301 302 301 301 302 301 301 301 302 302 302 303 305 304 305 306 306 307 307 307 309 309 310 310 311 314 318 319 320 321 316 317 322 329 328 330 329 326 324 324 324 323 324 324 324 323 323 323 324 325 325 327 329 328 328 330 332 331 331 331 328 328 328 325 325 325 322 320 319 319 318 318 318 316 315 314 312
302 300 301 300 301 302 302 300 302 302 301 301 298 298 300 300 299 294 299 301 301 301 301 301 301 300 300 301 301 301 302 302 303 304 304 304 304 304 305 305 305 306 308 309 311 316 318 319 320 322 323 326 327 324 323 324 324 322 321 322 321 321 321 320 319 319 319 320 321 322 322 322 323 323 325 327 330 329 327 325 324 324 323 322 322 321 321 320 319 318 318 316 316 316 314 314 313
302 301 300 300 301 301 301 301 301 301 300 301 300 298 300 299 299 296 298 300 301 300 300 300 300 299 299 301 300 303 302 303 302 302 302 302 302 302 303 303 303 305 306 307 310 317 318 318 318 319 319 322 321 320 319 319 319 318 318 318 319 319 318 317 316 316 314 316 318 320 320 320 320 320 321 320 321 321 320 319 320 321 321 321 321 321 320 320 319 317 317 317 315 314 313 313 313
302 301 296 299 301 300 301 300 301 301 299 300 301 297 296 295 294 298 299 300 300 300 300 300 300 299 299 299 299 299 300 301 302 301 301 302 303 303 303 304 304 304 306 308 313 315 315 315 316 315 315 317 317 316 316 315 316 315 314 313 314 316 315 315 314 313 313 312 312 315 317 318 318 318 318 317 315 316 316 317 316 316 317 318 320 321 320 320 319 318 317 315 315 314 314 313 313
302 300 297 297 297 297 302 302 300 298 299 299 299 288 292 295 297 297 300 300 300 299 298 298 298 298 298 299 299 299 300 300 300 300 300 301 302 302 302 303 304 304 305 307 312 312 313 313 313 313 312 311 311 312 313 311 312 312 311 311 310 310 310 310 311 312 311 311 310 310 312 315 316 317 316 315 315 314 314 313 313 313 314 315 315 316 317 318 318 317 315 316 314 315 314 313 311
295 300 299 293 292 292 298 300 298 297 299 298 299 290 291 295 296 298 298 300 299 298 298 298 298 298 298 299 298 299 299 299 300 301 302 302 301 302 302 303 304 305 305 306 308 312 309 310 310 310 309 309 309 309 309 309 308 308 308 308 308 307 306 306 307 308 308 308 308 308 308 308 310 314 314 312 311 311 310 309 309 310 311 312 312 312 313 311 311 308 307 308 312 308 308 309 309
297 294 291 295 292 295 297 300 298 296 296 299 297 290 293 295 296 298 299 299 300 298 298 298 298 298 298 298 298 298 299 300 300 300 301 301 300 300 302 302 303 303 303 306 308 311 308 308 308 308 308 307 307 307 307 307 306 306 306 305 305 305 305 304 304 304 305 306 306 305 306 306 306 307 310 310 308 307 307 306 306 307 308 308 308 308 309 308 307 304 303 304 305 304 304 304 304
297 293 293 293 294 295 295 297 299 301 297 298 296 291 295 295 297 298 299 299 299 298 298 298 298 298 298 297 298 298 298 298 299 299 299 300 300 301 302 302 302 303 304 306 307 308 307 307 306 307 306 308 306 306 307 304 304 303 303 303 303 303 302 302 302 302 302 302 303 303 304 304 304 304 304 305 305 304 304 304 304 305 306 306 306 306 306 305 304 303 302 303 303 301 301 301 301
293 295 291 296 293 294 292 296 298 300 297 293 296 292 294 295 296 298 298 299 298 297 298 298 298 296 297 297 297 298 298 298 297 297 298 299 299 301 302 302 302 303 305 306 307 307 307 307 305 305 305 304 304 304 304 303 303 302 301 301 301 300 300 300 300 300 299 299 300 300 301 302 303 303 303 303 303 302 302 302 304 305 305 305 305 305 305 304 304 303 301 302 300 299 298 298 298
291 293 291 293 295 296 294 292 295 297 297 294 294 293 295 295 296 296 298 299 298 297 298 298 297 297 297 297 296 297 297 296 296 297 299 299 299 300 301 302 302 303 304 305 306 307 307 306 306 304 304 305 303 303 303 302 302 301 300 299 299 298 298 298 298 298 298 298 298 298 299 299 301 302 302 302 302 302 301 301 301 302 303 303 302 302 302 302 303 302 302 300 300 298 298 297 296
295 295 295 294 291 292 293 295 297 297 294 293 294 293 294 296 295 296 297 298 298 297 297 297 297 296 296 296 296 296 296 296 297 298 299 299 299 299 300 302 302 302 304 305 304 305 305 305 305 304 304 304 304 303 303 302 301 300 298 298 297 296 296 296 297 296 297 297 297 297 297 298 298 299 300 300 300 300 300 300 300 300 299 299 299 298 298 298 299 301 300 299 295 295 294 294 293
297 298 296 294 293 294 297 296 298 297 295 293 294 294 295 296 296 296 297 297 296 296 296 296 295 295 295 295 296 296 296 295 297 299 299 299 299 300 300 301 301 301 302 304 304 304 304 303 303 302 303 303 302 302 301 300 298 297 297 296 295 295 295 295 295 295 295 295 295 295 295 296 296 297 297 298 298 298 297 297 296 295 295 295 295 295 296 296 297 298 300 298 295 292 291 292 292
296 296 294 292 295 292 297 296 296 297 295 292 294 294 295 296 298 297 297 295 295 296 296 295 295 295 295 295 295 295 295 296 297 297 298 298 298 300 299 299 300 299 300 303 303 302 301 302 301 301 301 300 299 299 298 297 297 296 295 294 294 294 294 293 292 292 292 293 293 293 293 293 293 293 294 295 295 295 294 294 294 293 292 292 293 293 293 294 293 294 295 295 295 292 290 291 292
297 293 292 291 292 296 298 295 296 296 295 290 294 293 294 296 297 297 296 296 296 297 297 296 296 295 295 295 295 295 295 295 295 296 298 297 298 299 298 298 299 299 299 301 302 303 302 300 299 299 298 297 297 298 297 296 297 297 295 294 293 292 293 292 292 292 292 291 291 292 292 292 292 292 292 293 293 292 292 292 292 292 291 291 290 290 291 290 291 290 291 291 290 291 291 292 290
294 292 290 289 295 292 290 293 295 294 293 292 293 292 294 297 299 299 297 297 296 297 298 298 297 295 295 295 295 295 295 294 294 294 295 296 297 297 297 298 298 299 299 299 299 300 300 300 298 297 296 296 296 296 296 296 296 295 295 294 293 292 290 291 290 290 290 290 290 290 291 291 291 291 291 291 291 291 291 290 290 290 290 290 289 289 289 289 290 289 289 289 290 287 287 288 290
294 294 292 292 294 294 293 292 293 295 294 295 292 291 292 294 295 296 293 294 294 295 295 294 294 296 296 296 296 296 295 294 294 294 295 295 296 296 296 297 297 297 297 298 299 299 299 298 297 297 296 296 296 296 295 295 294 294 293 293 292 291 290 289 288 287 288 288 289 289 289 290 290 290 290 290 290 290 290 290 290 289 289 290 289 289 288 288 289 289 289 288 288 287 286 286 287
292 295 295 295 295 294 294 297 294 291 289 293 292 283 284 294 295 296 291 291 291 292 292 292 293 292 292 292 293 294 296 295 294 294 294 295 295 295 295 296 296 296 296 297 298 298 297 297 297 297 297 296 296 297 296 295 294 293 291 290 288 287 286 286 285 285 286 287 287 288 289 290 290 290 290 290 290 290 289 290 289 289 288 289 289 289 288 288 288 288 289 287 287 288 287 285 285
290 292 298 297 296 295 295 294 292 284 282 291 294 285 283 291 293 293 291 291 291 291 291 292 292 292 292 292 293 292 293 294 294 294 294 294 294 294 295 295 295 294 295 298 297 296 296 296 296 295 295 295 297 296 295 294 292 292 291 289 288 286 286 286 286 286 287 287 288 288 288 289 289 289 289 289 289 289 289 288 288 288 288 288 288 288 288 287 288 288 288 288 287 288 287 285 285
289 296 299 298 297 295 294 295 292 289 294 295 292 291 284 285 291 295 292 291 291 289 290 291 292 292 291 292 293 292 292 292 292 292 293 294 294 294 294 295 295 294 295 295 295 295 294 294 293 293 293 294 294 294 293 293 291 290 289 289 288 287 286 286 286 286 287 287 287 287 287 288 288 288 288 288 288 288 288 287 287 287 287 287 287 287 287 287 287 287 287 287 287 287 286 285 284
293 296 299 296 297 296 295 293 289 289 287 283 287 292 284 283 290 296 293 290 290 289 289 290 291 291 291 292 292 292 293 292 292 292 293 293 293 293 293 293 294 294 294 293 293 292 293 293 292 292 292 292 292 292 292 291 291 290 289 288 287 287 287 287 287 288 287 287 286 286 286 287 287 288 288 288 287 287 287 287 286 286 286 286 287 287 286 286 286 286 285 286 285 286 286 285 284
296 298 297 296 297 295 296 290 288 287 286 283 286 290 283 285 291 290 291 291 291 292 291 291 292 291 291 291 292 292 292 292 293 292 292 291 291 292 292 292 292 292 293 293 292 292 292 292 292 291 291 291 292 291 291 290 290 290 288 287 287 287 287 287 287 286 286 286 286 285 285 286 286 286 287 287 287 287 286 286 285 285 285 285 286 285 285 285 285 285 285 285 285 284 284 285 284
298 297 295 293 292 290 289 289 287 285 282 284 290 291 288 282 289 290 289 291 293 293 291 292 292 291 291 291 291 291 292 292 292 291 291 290 290 290 291 291 291 291 291 292 292 292 291 291 290 290 290 291 291 291 290 290 289 289 288 288 287 287 287 286 286 286 286 285 285 285 285 285 285 285 285 285 286 286 286 286 285 284 285 285 285 284 284 284 284 284 285 284 284 284 284 283 284
297 293 289 290 287 287 285 285 286 280 281 284 290 291 291 281 282 292 292 293 294 294 291 291 291 290 291 291 291 291 291 291 291 290 289 289 289 289 290 289 290 290 290 291 291 291 291 291 290 290 290 290 291 291 291 291 290 289 289 288 288 287 287 287 286 285 285 285 285 285 284 285 285 285 284 284 284 285 285 284 284 284 284 284 284 284 284 284 284 284 283 283 283 283 283 283 282
294 291 289 284 282 282 278 282 278 280 280 282 284 288 286 287 291 292 292 293 293 294 295 293 291 291 290 290 291 291 291 290 290 289 288 288 288 288 288 289 289 289 290 290 290 290 290 290 289 289 289 289 290 290 290 290 289 289 289 288 288 288 288 287 286 286 285 285 285 284 284 283 283 283 283 283 283 283 284 283 283 283 282 283 283 283 283 283 283 283 283 282 282 281 281 282 281
291 289 286 283 281 280 279 280 281 281 283 282 284 287 282 286 290 297 297 292 293 293 294 295 293 291 290 290 290 291 290 290 289 289 288 288 288 288 288 288 289 289 289 290 290 289 290 290 289 289 288 289 289 289 289 289 288 288 288 288 288 288 287 287 286 286 286 285 285 284 284 283 283 282 283 282 283 283 283 283 283 282 282 282 282 282 282 282 282 282 282 281 281 281 281 280 280
291 293 291 287 285 281 279 281 279 281 280 281 284 282 280 282 286 288 289 289 290 291 293 294 293 292 291 291 290 290 290 289 289 288 288 288 288 288 288 289 289 289 289 289 289 289 289 289 288 288 288 288 288 288 288 288 288 288 288 288 287 287 286 286 286 286 286 285 285 284 284 283 282 282 282 283 283 283 282 282 282 281 281 281 281 281 282 281 281 281 281 281 280 280 280 280 279
290 293 294 288 286 288 284 282 281 279 279 277 279 281 283 287 289 289 289 289 290 291 292 292 291 291 291 290 290 290 290 290 289 289 289 288 289 288 288 289 289 289 289 289 289 289 289 288 288 288 288 288 288 288 288 287 287 287 286 286 286 287 286 286 286 286 285 285 284 284 283 283 283 282 283 282 282 282 282 281 281 281 281 280 280 280 279 279 279 279 279 279 278 281 278 278 278
288 291 287 289 293 292 284 280 281 280 279 278 282 282 285 290 288 288 288 288 288 289 291 290 290 290 290 289 289 289 290 290 289 289 288 288 288 288 288 288 288 288 288 289 289 289 289 288 288 288 288 288 288 287 287 287 286 286 286 286 286 286 286 285 285 284 284 284 283 283 283 283 283 283 283 282 281 280 280 280 280 280 280 280 279 279 278 278 278 278 278 277 277 277 278 277 278
291 284 289 293 295 293 286 281 281 279 279 280 282 281 281 283 283 287 286 286 286 288 288 290 290 290 289 289 290 290 290 290 290 289 289 288 288 288 288 288 288 288 288 288 289 289 289 289 288 287 287 287 287 287 286 286 286 286 286 286 286 286 285 285 285 284 284 283 283 282 282 281 281 282 282 282 281 280 279 280 278 278 278 278 278 277 277 277 277 278 277 277 276 276 276 277 277
291 288 295 290 282 282 285 283 279 278 278 278 280 282 283 285 287 284 286 286 286 287 288 289 289 289 289 289 290 290 290 289 289 289 289 288 288 288 288 288 288 288 288 288 289 289 288 288 288 287 287 287 287 287 286 287 287 287 286 285 285 285 285 285 284 284 283 282 282 281 281 281 281 281 281 280 279 278 278 278 277 277 278 277 276 276 276 276 276 276 277 277 276 276 275 275 276
294 293 289 294 286 284 283 285 282 283 279 276 277 281 280 288 290 288 289 289 289 288 288 289 289 289 290 290 290 290 289 289 289 289 289 288 288 288 287 287 287 287 288 288 288 288 288 288 287 287 287 286 286 286 286 285 285 285 285 284 284 284 284 284 283 283 282 281 281 281 280 279 280 280 278 278 278 277 277 277 277 277 276 276 275 275 275 275 275 275 275 276 275 275 274 274 274
284 285 284 287 285 287 286 286 284 281 278 278 278 277 281 288 292 292 292 292 291 290 289 289 290 290 290 290 290 290 290 290 290 289 289 288 287 287 287 287 287 287 288 288 288 287 287 287 286 286 286 285 285 285 285 285 285 284 283 283 283 283 282 283 282 282 281 280 280 280 279 279 278 278 278 277 277 276 276 276 276 276 275 275 275 275 275 274 274 274 274 274 274 274 274 274 274
290 289 287 290 287 284 281 280 287 284 281 279 279 280 282 290 291 291 290 294 293 292 290 290 290 290 291 291 291 291 291 291 290 290 289 288 287 287 287 287 286 286 286 287 287 287 286 286 286 286 285 285 284 284 284 284 284 283 282 282 281 281 281 281 280 279 279 279 278 278 278 277 277 277 277 277 276 276 275 276 275 275 275 274 274 274 273 273 273 273 273 276 276 273 273 273 273
Wind_Speed
10 9 5 3 3 3 3 2 1 2 2 4 3 2 2 2 1 2 5 3 6 3 3 3 4 3 3 1 3 7 9 7 7 4 1 1 1 5 4 3 1 4 5 10 9 8 6 6 11 12 13 13 13 13 12 12 11 10 9 9 8 8 9 9 9 9 9 10 10 10 10 10 10 11 11 12 13 13 14 14 14 13 15 15 15 16 16 16 16 16 15 14 14 14 14 13 13
7 7 6 4 3 2 1 2 1 1 3 6 5 4 2 2 1 7 6 8 4 2 1 2 2 2 2 3 0 2 9 9 9 5 3 6 6 4 3 6 2 6 2 10 9 9 6 5 10 12 13 13 13 14 13 12 12 11 10 9 7 8 9 8 9 9 9 9 10 10 9 9 9 10 10 11 12 13 13 14 13 13 13 14 15 16 16 15 15 15 15 14 14 14 14 13 13
7 7 6 4 3 2 3 1 1 1 4 6 3 1 3 4 6 6 7 7 5 3 1 3 0 0 4 5 2 6 3 11 7 9 5 1 1 5 3 3 4 2 4 10 9 8 7 6 8 11 13 13 13 14 13 13 12 12 10 9 8 8 8 8 7 8 9 9 9 9 9 9 9 9 10 11 11 13 13 13 13 13 13 15 16 16 15 15 15 15 15 14 14 14 14 14 14
5 6 4 3 2 3 1 1 3 3 4 5 4 3 4 5 6 7 6 5 3 1 1 2 1 0 2 8 4 7 7 5 8 3 2 4 2 3 2 1 4 0 2 5 8 8 7 9 9 10 12 12 14 13 14 13 12 12 10 9 8 9 8 8 8 8 8 8 8 8 8 8 9 9 10 11 12 12 13 13 12 13 15 16 16 15 15 15 15 15 14 14 14 14 14 14 14
4 4 4 3 1 1 1 2 2 4 5 3 4 3 5 5 6 7 4 4 3 3 4 1 1 2 6 5 5 2 3 1 10 10 2 3 3 2 1 0 2 4 3 2 9 8 9 14 10 9 12 13 14 13 13 12 12 11 9 9 8 9 8 8 8 8 8 7 7 7 7 7 8 8 9 11 12 13 13 13 14 14 16 17 16 16 15 14 14 14 14 14 14 14 14 14 14
7 4 3 1 1 0 0 2 3 6 3 1 4 4 5 5 6 6 5 5 3 3 1 1 2 1 3 4 4 2 6 2 3 5 4 3 3 3 3 4 1 4 3 3 7 9 9 14 12 10 11 11 14 13 12 13 12 11 10 10 9 10 9 8 8 8 8 7 7 7 7 7 8 8 9 11 12 13 14 14 16 16 16 16 16 15 15 15 15 15 14 14 14 14 14 14 14
3 2 1 1 2 0 2 2 6 5 5 4 4 4 5 5 3 6 6 4 4 4 2 2 3 2 6 2 6 6 6 3 4 2 3 1 2 3 7 1 1 5 4 1 9 9 10 12 11 10 9 10 11 12 12 13 12 11 10 10 10 10 10 9 8 8 8 7 7 7 7 7 8 8 10 11 12 13 14 15 16 16 16 16 15 15 16 16 15 15 15 14 14 14 14 14 14
2 0 0 1 2 1 3 4 7 3 2 7 5 7 4 4 0 2 3 1 2 1 2 2 2 3 3 5 5 3 5 8 5 4 4 3 3 4 6 5 5 4 3 9 8 8 10 11 9 9 10 9 10 10 12 11 12 11 9 9 9 10 10 9 8 7 8 7 6 6 6 7 8 9 10 11 12 13 14 14 15 15 15 14 14 15 16 15 15 15 15 15 14 14 14 14 14
2 2 0 0 2 0 2 6 5 4 4 5 5 6 6 2 3 2 6 3 3 4 4 4 4 1 5 11 7 3 4 6 7 6 5 4 4 5 5 8 7 5 5 9 8 7 7 8 9 8 8 10 9 11 11 12 12 11 9 8 8 9 8 8 7 5 6 6 5 6 5 5 7 8 9 10 12 12 13 14 14 14 14 14 14 14 15 15 15 15 14 14 14 14 14 14 14
2 1 1 1 2 2 1 4 4 3 4 4 5 5 4 1 2 3 2 4 3 3 3 3 5 3 4 11 6 3 3 6 5 5 5 5 4 5 6 7 7 4 5 3 8 7 6 8 8 7 6 8 8 9 9 9 11 11 10 9 8 8 8 8 8 5 4 5 6 7 6 5 7 7 8 11 11 11 13 13 13 13 13 13 13 14 15 15 15 15 14 14 14 13 13 14 14
1 1 1 1 2 1 2 4 5 4 4 4 4 4 3 2 0 2 3 5 1 2 3 4 1 5 3 4 4 4 6 5 6 6 4 6 4 4 5 5 5 6 5 6 5 8 7 5 8 8 5 6 6 7 9 8 9 9 9 8 8 7 7 8 7 6 4 7 7 7 6 6 5 6 9 10 11 11 12 12 12 13 14 13 13 14 15 15 15 15 14 14 14 13 13 14 14
2 0 1 2 3 1 4 6 4 4 5 5 4 4 1 2 0 1 2 3 2 4 5 7 1 3 2 5 3 3 5 10 6 3 4 3 4 4 6 3 5 5 5 3 4 4 7 6 5 7 7 7 5 6 6 6 6 7 7 8 7 7 7 8 6 5 6 8 7 7 6 7 6 6 8 10 10 11 11 12 14 14 13 13 13 13 14 14 14 14 13 13 13 13 13 13 14
0 3 3 2 3 3 1 2 4 5 3 3 5 2 1 2 1 3 3 1 3 4 4 4 2 1 2 3 4 5 11 6 5 3 2 3 4 5 5 4 5 4 4 3 2 3 3 6 6 5 6 9 6 5 6 6 4 6 6 8 7 5 6 7 6 6 9 9 9 8 6 7 6 6 7 7 8 9 11 12 13 14 13 13 12 12 13 14 13 13 13 12 12 12 12 13 13
1 1 1 1 1 1 0 3 4 3 2 4 4 4 1 0 3 3 3 2 8 5 1 1 1 5 1 7 3 3 4 4 4 3 1 3 4 5 6 4 5 3 3 2 4 4 3 3 5 6 6 5 4 4 5 8 7 4 4 3 5 5 6 5 6 8 9 10 9 8 7 7 7 3 7 6 5 6 10 11 12 12 13 12 12 12 12 12 12 12 12 12 12 12 12 12 12
2 3 1 3 1 1 1 1 4 3 3 3 2 4 3 4 2 1 4 3 4 3 3 1 1 1 1 2 2 3 4 4 3 0 1 3 5 4 6 4 4 4 5 6 5 4 5 4 4 2 7 4 5 6 5 6 7 7 6 4 3 1 2 6 6 8 9 11 11 10 9 9 8 8 9 8 5 5 9 12 11 11 11 11 11 11 11 12 11 11 11 11 12 12 12 12 11
1 2 1 1 1 1 0 0 2 1 3 3 2 4 4 3 1 1 3 2 1 2 1 1 3 2 3 6 2 2 3 3 4 0 3 2 4 4 5 5 5 4 3 3 4 5 5 4 4 3 1 5 4 5 5 7 8 9 7 6 4 5 1 2 6 8 9 10 10 10 10 9 9 8 11 7 4 4 9 9 11 10 11 10 10 11 10 11 11 11 10 10 11 12 12 11 10
1 0 1 2 0 1 1 0 2 0 4 4 3 3 2 4 1 2 1 0 1 4 5 6 3 4 6 4 3 1 3 4 6 2 1 3 3 3 4 4 5 4 3 5 4 3 3 4 4 4 4 2 3 4 4 6 8 11 8 8 9 6 1 3 7 9 8 7 8 9 10 7 6 6 7 7 5 3 8 10 11 10 9 9 9 11 10 11 11 10 9 8 8 9 8 8 7
0 0 1 3 2 3 0 2 3 5 4 4 3 2 1 4 2 2 1 1 3 1 9 6 9 9 5 4 3 3 4 5 6 6 6 5 5 4 6 5 5 5 6 4 5 5 4 1 2 3 5 4 3 2 2 5 6 7 7 6 5 7 7 5 6 5 6 5 6 5 4 6 6 5 5 6 4 5 7 12 12 10 9 8 9 10 10 10 11 10 8 6 4 5 4 4 3
0 3 1 1 4 0 4 3 5 1 4 3 5 2 1 3 0 1 1 3 5 3 7 6 8 7 6 5 4 4 5 6 6 7 7 7 6 6 5 4 6 5 6 6 4 5 5 6 6 3 3 5 4 3 0 5 7 6 5 6 5 7 6 6 4 5 4 6 5 4 4 4 4 7 6 6 5 7 7 11 11 10 9 8 9 9 9 9 8 8 8 4 3 0 2 3 3
0 1 2 3 1 3 3 4 4 5 2 3 3 3 1 3 0 0 2 3 2 2 5 5 6 6 5 4 4 4 5 6 6 6 7 6 6 6 5 5 4 4 5 4 5 5 6 6 6 5 6 3 4 5 0 1 6 5 6 6 5 5 5 5 4 4 4 5 6 5 6 2 4 4 8 10 8 5 6 9 10 10 9 8 11 6 7 7 7 4 5 4 0 4 6 5 4
1 1 2 1 2 1 2 5 4 4 6 3 2 2 1 1 2 0 2 3 1 6 5 4 5 4 4 4 4 4 5 6 6 6 6 6 6 5 5 4 4 3 3 3 6 5 5 5 4 6 7 6 3 5 4 2 2 5 5 6 6 6 5 5 4 4 3 3 4 5 2 8 2 5 5 6 6 6 5 4 5 5 5 5 8 5 5 4 4 2 1 2 7 6 6 5 5
2 1 2 2 1 1 3 6 6 3 3 2 1 1 0 1 1 3 2 3 1 1 2 4 5 4 4 3 3 4 5 5 6 6 6 6 6 6 5 4 4 4 4 5 4 3 4 5 4 4 6 6 5 4 4 3 0 1 3 7 5 5 3 2 0 2 0 2 3 1 0 6 5 5 4 3 5 6 6 5 5 6 5 5 4 5 5 4 3 4 5 5 5 5 4 4 4
1 0 2 3 3 1 2 3 3 1 1 1 1 1 2 1 2 3 1 1 4 3 4 4 5 4 3 3 3 5 4 5 5 5 5 5 5 6 5 4 4 4 4 4 3 4 4 4 4 4 4 5 7 4 5 1 2 1 2 3 6 5 6 3 1 3 3 3 3 3 5 4 4 2 5 1 2 6 6 5 5 5 5 5 5 4 5 5 4 6 6 5 4 4 3 3 2
1 1 1 3 2 2 1 3 3 0 2 1 0 1 1 2 4 1 3 4 7 5 4 4 4 3 3 4 5 5 4 4 4 4 4 4 4 5 4 5 5 4 5 5 5 4 5 5 6 5 3 5 6 3 4 1 2 2 6 6 7 6 7 7 6 7 7 7 6 3 2 3 1 1 2 1 1 2 5 6 5 5 4 3 2 3 5 5 6 6 5 4 4 4 3 1 2
2 0 3 2 2 2 2 4 2 1 2 3 2 1 4 3 2 1 5 7 6 6 4 4 4 4 4 4 4 4 4 4 4 4 4 4 4 5 5 5 5 5 6 6 6 5 5 6 6 6 3 4 6 3 4 1 6 8 8 8 7 8 8 6 6 6 7 6 8 7 6 5 4 2 1 4 4 1 2 4 4 4 2 2 3 4 4 5 5 5 4 4 5 6 4 3 3
3 3 2 2 1 2 3 3 3 4 2 2 2 4 4 6 5 1 9 7 7 6 4 4 4 4 4 3 4 4 4 4 3 4 4 4 5 6 6 6 5 7 6 7 6 5 5 8 7 10 1 4 7 2 3 8 7 9 8 8 7 8 7 7 7 8 7 7 7 7 8 6 6 4 4 2 2 2 3 3 3 3 4 3 2 3 3 3 4 4 4 4 5 4 4 3 2
2 3 3 4 5 3 3 4 4 6 4 5 4 3 5 2 4 3 3 8 7 5 5 4 4 4 3 3 3 3 4 4 4 3 5 5 5 5 5 5 7 7 7 7 7 6 3 6 7 9 6 8 7 10 7 8 8 8 8 7 8 8 7 8 8 7 7 8 7 8 8 7 6 7 7 6 7 6 8 8 7 6 6 6 6 6 6 6 5 5 5 5 4 5 3 0 3
1 1 4 6 8 7 4 4 6 1 2 5 4 5 1 1 2 4 8 7 7 7 6 5 4 4 4 4 3 3 4 4 4 5 6 6 5 4 5 5 6 6 7 7 7 7 7 8 7 7 8 9 9 9 8 9 9 9 8 8 8 8 8 8 8 8 8 8 8 8 8 7 7 8 9 9 7 7 7 7 6 6 6 5 5 5 6 5 5 3 4 4 3 3 3 3 1
0 2 3 4 4 5 8 8 6 5 1 2 4 3 4 5 5 5 9 7 6 7 6 5 5 4 4 3 4 3 4 3 4 4 4 3 3 5 6 8 7 6 5 6 7 7 7 7 6 8 8 9 10 10 10 8 8 9 8 8 7 8 8 8 9 8 8 8 8 9 8 8 9 8 8 9 9 8 6 7 6 6 5 5 5 5 5 5 5 4 2 2 3 2 3 3 3
1 3 3 5 4 7 8 8 3 4 2 5 4 2 7 11 5 6 7 8 6 6 5 4 4 4 4 4 3 4 2 4 4 4 3 3 4 4 6 7 6 5 4 5 7 8 6 5 4 5 8 10 11 9 9 8 8 9 8 7 8 8 8 8 8 8 8 8 8 10 9 9 9 8 8 9 8 8 7 7 8 8 6 6 7 7 6 6 5 6 6 5 3 4 3 4 5
2 2 4 2 2 2 2 4 6 3 2 5 3 3 4 6 5 5 6 6 7 6 6 5 4 5 4 3 4 3 4 3 4 4 4 4 4 5 5 6 6 6 4 6 7 6 7 6 5 6 6 10 10 10 10 9 9 8 8 8 8 8 8 8 8 8 8 7 7 9 10 9 9 9 9 8 9 9 9 9 8 7 7 6 8 7 7 8 8 8 7 7 6 7 7 6 7
3 1 3 2 4 0 2 4 8 6 1 3 3 2 6 6 5 6 6 7 6 6 6 5 5 4 5 4 3 5 4 3 5 4 4 5 4 3 4 5 6 5 6 5 5 6 7 7 7 7 8 11 10 9 7 9 11 9 8 8 8 9 9 9 8 8 8 8 9 10 10 10 10 10 9 8 9 8 8 8 8 7 7 7 8 8 8 8 6 7 7 6 6 7 7 8 7
4 6 3 4 3 3 1 4 4 2 4 2 7 3 4 0 5 6 5 7 7 5 7 7 6 6 5 4 4 5 5 4 4 4 3 4 4 4 4 5 5 5 5 5 5 6 7 7 8 8 8 9 10 11 10 11 12 10 10 10 10 10 10 9 9 9 9 9 8 9 10 10 11 11 10 10 9 9 8 8 7 7 8 10 7 8 8 6 6 6 8 8 7 6 7 7 7
4 4 5 4 5 2 3 1 3 3 4 4 6 5 7 2 8 7 7 8 8 6 7 7 6 5 5 4 4 5 5 5 4 4 3 4 4 5 5 4 5 5 5 5 5 5 6 6 7 8 8 8 8 9 9 9 10 10 10 10 10 11 10 8 8 9 9 8 8 9 9 9 9 10 10 9 9 8 7 7 7 8 7 8 7 7 6 6 6 5 6 8 9 8 7 7 7
4 2 3 5 5 7 5 3 5 4 4 3 5 9 9 4 6 8 9 8 9 8 7 8 7 6 5 4 5 4 4 5 5 4 3 4 4 4 4 4 5 5 4 5 5 4 5 5 5 8 8 8 9 11 11 11 11 10 10 10 11 11 9 8 8 9 8 8 9 8 9 8 9 10 10 9 9 8 8 8 8 8 7 7 8 8 8 7 6 7 7 7 7 8 7 7 6
6 5 1 3 3 4 3 2 4 5 5 5 5 6 6 4 8 5 6 7 8 7 5 6 6 6 5 5 4 4 4 6 4 4 3 4 4 5 3 4 5 4 4 5 6 5 6 6 6 6 7 7 6 6 6 8 8 7 9 8 11 10 9 9 9 9 8 8 8 8 9 8 9 8 8 8 8 8 8 8 9 8 8 8 9 10 9 8 8 6 8 8 9 9 10 9 9
6 1 2 5 5 4 5 3 0 1 1 6 6 5 6 8 5 11 9 6 5 5 6 6 6 6 6 5 5 5 5 5 4 4 4 4 5 4 4 3 5 4 6 6 5 5 5 6 5 7 6 5 5 6 5 6 8 8 8 9 10 8 8 9 10 9 9 9 9 9 9 9 9 10 9 8 9 9 9 8 9 9 8 8 9 9 8 9 9 9 5 7 9 10 10 9 11
4 3 4 5 2 7 4 2 3 1 0 2 3 5 7 6 6 6 6 7 9 9 8 8 7 6 6 6 6 5 6 5 5 4 4 5 4 4 3 4 4 5 5 5 5 5 4 5 6 6 6 7 7 6 6 7 7 6 8 8 8 8 8 8 9 8 8 8 10 10 9 9 10 10 10 10 10 9 9 9 9 9 9 8 9 9 11 11 13 11 8 7 6 8 7 8 10
4 4 3 4 5 4 7 4 2 1 1 5 7 9 8 8 6 3 13 12 10 11 9 8 8 7 6 5 6 6 7 6 5 5 4 5 5 4 3 5 5 5 4 3 3 4 6 6 7 7 7 7 7 7 7 8 7 8 9 8 9 10 8 8 8 8 8 10 10 9 9 10 10 10 10 9 9 9 8 8 8 8 8 8 9 10 10 12 10 12 11 9 6 4 4 6 11
2 2 3 6 3 3 3 3 1 3 2 2 3 8 8 7 9 11 10 9 2 3 3 3 5 8 6 7 7 8 7 8 7 6 6 5 5 4 4 5 4 3 3 3 3 5 6 5 6 7 7 7 8 7 8 9 10 11 11 10 10 10 9 8 10 9 9 10 11 9 9 9 9 9 9 9 8 9 8 8 8 8 9 9 9 10 12 12 11 11 10 9 5 7 6 8 8
4 6 5 4 4 6 7 3 4 4 4 3 4 7 9 8 12 10 3 5 5 2 4 3 4 3 4 5 6 7 8 8 8 7 6 6 6 5 5 5 4 4 3 3 3 4 5 6 7 8 7 7 8 9 10 10 12 11 11 10 8 10 8 7 8 9 8 8 9 10 9 8 9 9 9 9 8 9 9 9 9 9 10 10 9 9 9 8 8 7 8 8 9 5 7 6 8
5 6 9 7 6 6 5 2 4 2 3 4 4 4 3 7 14 12 5 3 3 4 4 5 4 3 4 5 5 4 6 6 8 8 8 7 7 7 5 5 4 5 3 2 3 4 5 5 6 6 6 7 7 7 8 7 8 9 6 8 8 8 9 7 8 8 7 9 8 5 9 9 9 10 9 10 10 9 10 9 9 9 9 9 8 8 7 8 9 9 8 7 9 9 5 8 8
4 3 5 11 7 5 2 4 2 3 2 1 1 4 7 3 5 1 5 7 6 4 7 6 7 6 5 5 6 4 5 7 6 6 6 8 7 7 6 5 4 5 4 2 3 4 5 5 5 5 5 4 4 5 4 4 5 7 8 8 8 8 10 7 5 6 7 6 7 9 8 8 9 10 9 9 9 9 8 8 8 8 8 8 7 8 9 8 7 7 7 8 7 7 7 8 8
4 1 3 2 1 1 1 1 3 4 2 2 3 3 7 11 7 5 7 7 7 6 7 7 8 8 8 6 7 7 6 4 6 7 6 6 7 7 7 8 5 5 4 3 4 4 5 5 5 5 4 5 5 6 8 7 8 9 10 9 8 9 9 9 7 6 6 6 8 8 7 8 8 8 9 8 8 8 8 8 8 8 8 7 7 7 7 6 7 7 8 7 7 7 8 7 5
2 1 3 2 2 0 0 1 3 3 3 5 4 2 3 6 3 10 10 5 7 11 10 10 9 8 8 7 8 8 8 6 6 7 7 7 7 7 7 7 6 5 3 4 4 4 5 5 6 6 6 6 6 7 8 8 8 9 8 9 10 7 9 7 6 6 6 6 8 6 7 7 8 8 8 8 8 8 8 8 8 8 8 7 6 7 6 7 7 7 9 9 7 7 7 6 6
0 2 5 4 3 1 1 1 1 2 2 9 5 5 5 14 4 3 5 5 10 9 11 11 11 10 9 8 7 7 7 6 6 6 6 6 6 7 7 7 6 5 4 4 4 5 5 5 7 7 6 6 6 7 8 8 8 8 9 8 11 9 7 7 6 7 6 5 8 6 6 7 6 7 7 7 7 7 7 7 7 8 7 7 7 6 6 7 7 6 6 6 7 7 6 7 6
5 4 4 2 2 1 1 1 0 2 8 9 6 8 6 9 2 9 8 7 8 3 4 5 8 8 8 7 8 8 7 7 7 7 6 6 5 7 7 7 6 5 4 5 5 5 5 6 7 8 6 7 6 7 8 9 8 7 8 8 8 10 8 8 8 7 6 6 7 7 6 6 6 6 6 7 7 6 7 6 7 7 6 6 7 6 6 6 6 6 6 6 7 7 6 7 7
6 2 3 2 0 3 0 1 2 2 11 4 12 10 11 10 3 1 1 3 2 9 10 12 11 12 11 9 9 8 8 7 8 8 8 8 7 6 6 7 6 5 5 5 5 5 6 6 7 9 7 7 7 7 8 8 7 7 7 7 9 8 8 7 8 8 6 7 6 7 6 6 6 6 6 6 7 6 6 6 5 6 7 7 7 6 6 5 5 6 6 7 7 6 6 6 6
2 4 4 7 2 2 2 3 4 8 10 1 1 4 6 16 9 2 4 3 1 2 8 13 13 12 11 9 10 8 8 7 9 8 8 8 8 8 8 7 7 6 6 6 6 6 6 7 7 10 7 6 7 7 8 8 7 7 7 7 6 7 7 7 7 7 5 6 7 7 6 7 6 6 6 7 5 5 5 6 6 7 7 7 5 5 5 6 5 6 6 6 6 6 6 5 6
6 7 8 6 3 4 7 4 3 4 2 2 1 1 4 2 5 15 12 3 2 1 1 11 14 14 12 11 10 9 9 9 8 8 8 7 8 7 7 7 7 6 6 6 6 6 6 7 7 9 8 7 7 7 7 8 7 6 6 6 7 7 7 7 6 7 6 6 6 7 6 6 6 6 5 6 4 5 6 6 6 6 6 5 5 5 5 5 5 6 5 5 5 5 5 5 4
11 5 10 9 8 3 4 5 8 5 2 0 3 3 6 5 7 5 5 4 3 3 3 8 9 10 10 9 9 9 9 8 8 8 9 9 9 8 8 7 7 7 7 7 6 6 6 7 8 9 9 7 8 7 7 8 7 7 6 6 7 6 7 7 7 6 7 7 6 7 6 6 6 5 6 4 4 5 5 6 5 6 5 5 5 6 6 5 5 5 5 4 4 4 4 4 4
5 6 3 6 10 1 6 0 0 1 1 1 2 5 2 5 1 3 3 4 3 2 5 9 9 9 10 10 10 10 9 9 8 9 9 8 9 8 8 7 7 7 7 6 6 6 7 7 8 8 9 9 8 9 7 7 7 7 6 7 7 7 7 7 7 6 7 6 6 7 7 6 6 6 5 4 4 4 4 5 5 5 4 4 5 4 4 4 4 5 4 4 5 3 4 2 3
5 6 10 6 1 5 1 1 1 1 2 8 4 5 6 1 0 3 4 4 3 0 4 8 8 9 10 9 9 9 9 9 9 9 8 9 8 7 8 7 7 7 7 7 6 6 8 9 10 10 9 8 9 8 8 7 8 8 8 7 7 7 7 7 7 7 7 7 7 6 6 6 5 5 5 4 5 4 4 4 4 4 4 4 4 4 4 4 4 4 3 5 5 4 4 3 3
7 5 6 3 4 3 2 5 0 3 7 6 8 9 4 3 8 4 4 4 4 5 4 7 8 10 11 10 10 11 10 9 8 8 7 8 8 8 7 6 6 7 7 7 7 6 8 8 10 11 10 11 8 9 8 8 8 8 8 8 8 8 8 8 7 8 7 7 6 6 5 6 5 4 4 4 4 4 4 4 4 4 4 4 4 4 4 4 4 5 4 4 4 4 4 4 3
2 4 2 9 3 3 4 2 7 4 7 4 4 8 7 12 9 3 6 9 9 10 7 8 11 11 11 9 9 9 8 9 9 10 10 9 9 8 8 8 7 6 6 6 7 7 7 6 7 9 10 9 9 8 7 7 7 7 7 8 8 8 7 7 6 6 6 7 7 6 6 5 5 4 5 4 4 4 3 4 4 4 4 4 4 4 4 4 4 4 4 5 4 4 4 3 3
1 0 2 2 2 3 7 9 0 3 6 1 5 6 8 8 6 13 13 15 14 12 11 12 13 12 11 10 11 12 12 11 10 10 9 9 9 8 8 8 9 9 8 7 7 6 7 7 8 8 7 8 8 8 8 9 7 8 8 8 7 7 7 6 6 6 7 6 6 5 5 5 5 5 4 4 4 4 4 4 4 4 4 4 4 4 4 4 4 4 3 4 3 3 3 3 3
3 1 4 1 2 1 2 1 5 4 2 5 5 6 4 2 1 11 13 14 14 17 17 13 12 12 11 11 12 12 12 12 11 11 10 10 10 9 8 7 7 7 6 6 7 8 8 7 8 8 10 9 8 7 8 7 8 8 9 8 8 7 7 7 7 6 6 6 5 5 5 5 5 4 4 4 4 3 3 4 4 4 4 4 4 4 3 3 3 3 3 2 2 2 3 3 2
15 15 15 15 11 6 5 8 3 3 2 6 3 13 1 1 2 1 4 8 14 15 15 14 11 12 12 11 11 12 12 12 12 10 10 10 10 10 8 7 6 7 7 8 8 7 8 8 8 9 8 8 9 8 8 8 7 8 8 8 7 6 6 7 7 6 6 6 5 5 5 5 5 4 5 5 4 3 3 4 4 4 4 4 4 3 3 3 3 3 3 1 1 1 2 2 3
Wind_Direction
295 281 247 259 279 268 315 220 322 209 205 64 93 42 81 61 249 118 66 160 76 59 15 38 14 9 11 68 357 62 40 44 24 76 129 179 37 57 47 30 7 119 124 119 124 122 123 123 138 142 143 142 140 138 133 128 123 119 118 116 119 117 113 114 113 111 108 104 100 97 96 95 94 96 101 102 99 96 93 87 84 82 72 70 67 61 55 49 45 43 43 43 42 42 41 39 38
293 305 296 258 261 341 273 145 289 253 83 79 78 115 119 174 107 47 64 67 48 71 24 42 24 341 263 257 149 107 53 54 86 90 87 98 123 73 64 5 342 121 110 119 129 131 130 111 135 139 144 145 143 138 136 131 128 126 124 125 125 119 117 112 114 112 112 110 104 101 101 96 92 93 98 99 101 95 92 87 80 74 75 71 66 61 56 52 47 44 46 46 43 42 42 40 40
306 309 307 275 225 200 298 206 292 185 126 95 65 113 247 69 61 67 58 57 66 69 56 116 343 320 315 160 50 68 86 37 54 97 88 103 342 28 26 9 346 126 139 125 132 136 133 122 139 140 144 147 143 139 139 136 133 133 133 133 128 125 117 123 117 115 110 110 107 107 108 105 100 100 102 101 96 96 91 88 85 83 78 71 65 61 57 53 49 48 49 49 46 43 42 42 42
284 280 281 333 308 139 264 195 207 315 82 130 92 33 54 81 79 78 64 64 56 316 275 73 112 214 344 56 14 95 44 48 30 28 94 54 33 350 2 12 299 43 91 115 134 141 130 134 137 141 146 147 145 143 141 140 138 138 138 136 134 126 132 126 124 119 116 110 108 111 107 108 105 101 105 104 102 98 92 87 84 81 73 68 65 64 59 54 50 49 51 52 50 47 44 44 43
268 253 218 282 298 254 334 250 300 59 30 10 110 100 88 88 84 85 81 100 72 19 354 43 140 358 65 51 14 35 318 152 50 33 70 98 343 7 101 204 272 79 128 188 135 130 131 137 137 138 149 153 148 145 143 143 141 140 141 137 137 134 133 136 131 126 121 117 113 116 112 109 103 103 104 105 104 101 97 88 83 76 72 70 70 66 61 56 52 51 51 52 53 51 48 47 45
233 247 206 157 285 120 310 312 58 68 17 274 113 88 76 80 92 99 112 92 103 58 358 2 20 93 51 44 20 55 341 38 49 57 359 48 348 324 154 215 249 129 140 225 122 112 133 139 139 140 151 151 152 148 145 147 146 145 144 143 140 137 139 139 140 130 131 131 128 125 121 115 108 106 106 108 109 96 88 84 80 77 73 71 67 64 61 57 53 51 51 52 53 53 52 50 49
319 340 200 236 269 97 245 293 86 93 357 41 103 109 97 82 119 130 117 111 74 98 332 46 342 46 104 144 82 69 37 347 53 18 45 29 14 345 337 173 174 114 148 149 86 111 127 131 138 139 141 155 153 154 152 150 149 147 147 148 146 144 145 147 146 141 137 139 137 134 130 123 114 113 112 110 104 100 90 89 87 81 77 73 67 63 60 56 52 52 51 51 51 52 52 52 51
226 109 39 316 283 105 270 95 52 62 61 44 53 96 99 102 307 153 96 108 160 139 117 105 80 358 142 110 104 74 84 64 85 59 57 43 26 21 10 348 84 120 123 72 92 100 116 121 124 128 138 153 158 157 156 154 152 148 148 152 150 150 151 149 150 149 141 141 148 136 132 130 127 125 121 117 109 104 99 94 92 91 86 79 72 67 62 56 54 52 53 51 49 50 50 51 51
218 178 122 49 260 132 326 65 99 87 107 91 66 65 68 56 23 342 107 115 112 67 48 16 334 273 103 88 90 118 60 91 77 70 66 38 50 42 21 19 31 44 69 100 105 118 108 111 111 116 135 156 160 163 167 159 155 153 151 153 155 153 151 148 152 154 142 142 147 138 110 114 120 120 123 119 116 108 105 103 100 97 92 85 77 71 66 62 57 55 55 54 52 50 50 50 49
272 146 321 272 320 194 225 131 110 99 85 89 125 118 118 160 102 330 88 100 54 93 64 10 319 68 133 105 111 36 50 28 61 58 70 53 30 68 42 27 17 29 44 68 113 108 112 107 97 98 125 155 161 162 159 168 163 157 155 158 157 156 153 153 157 153 145 128 88 90 95 81 120 127 132 125 118 111 109 106 100 98 92 85 80 77 73 68 62 59 57 56 54 52 51 51 51
293 178 152 13 253 167 200 112 104 135 115 97 74 78 81 42 327 91 14 88 18 89 98 342 334 1 17 57 73 117 55 56 47 37 35 97 52 60 72 32 27 21 48 8 82 124 127 116 101 79 93 147 152 154 164 172 169 163 157 163 158 154 157 156 164 149 130 112 98 98 124 118 118 130 124 126 117 115 111 108 103 99 96 87 84 81 77 73 69 65 63 60 56 52 50 49 49
320 154 70 277 267 88 349 99 104 89 118 125 115 124 325 109 159 221 184 141 150 113 59 4 51 5 302 129 131 101 66 34 40 33 0 89 95 64 70 50 41 32 29 21 2 82 128 128 122 100 82 90 123 150 161 155 163 174 163 164 163 159 159 162 159 137 115 111 110 117 126 129 107 127 133 124 122 115 109 106 102 101 96 91 86 84 81 78 74 71 70 69 63 57 54 52 48
14 0 314 269 291 24 316 103 117 115 145 183 125 77 250 168 264 13 53 343 171 108 55 22 321 269 346 80 133 72 40 12 8 15 14 25 99 105 84 67 46 40 25 6 12 49 88 149 135 131 111 106 95 125 143 143 184 174 168 168 170 168 164 161 151 129 121 120 118 122 129 128 136 143 125 124 117 116 111 107 105 103 99 94 89 86 83 81 77 77 76 75 72 65 61 58 54
357 29 352 300 288 44 351 69 111 141 183 96 96 137 172 291 62 355 333 356 43 72 74 342 0 38 141 114 100 40 39 6 339 20 343 95 84 85 94 81 66 38 360 24 37 44 21 18 145 148 147 153 154 118 137 161 186 171 190 192 179 169 162 158 144 123 126 125 121 112 109 107 84 53 104 92 94 102 111 111 108 104 100 94 90 87 87 84 80 78 79 80 81 76 68 63 59
351 359 295 298 11 32 43 121 170 197 104 124 131 153 136 51 37 307 39 39 76 73 128 44 46 325 8 328 109 13 345 339 322 201 44 69 69 91 103 106 91 73 37 30 27 33 16 4 350 116 163 166 184 170 163 170 179 169 188 192 190 184 203 154 138 114 117 128 129 125 124 119 106 98 105 104 90 75 113 113 112 106 101 98 96 92 90 85 79 72 73 79 81 81 75 68 61
350 356 278 299 190 184 310 178 33 205 122 108 214 116 137 119 32 296 57 34 210 104 195 87 20 19 26 68 65 353 355 321 298 160 136 92 131 148 141 125 109 105 106 119 77 24 4 7 333 342 162 182 184 188 170 161 175 166 176 175 170 154 234 84 116 108 119 131 134 130 128 123 123 121 106 74 39 82 118 124 118 112 111 108 102 98 93 87 79 69 66 73 76 77 75 69 62
346 157 351 238 331 178 161 209 120 307 102 102 168 179 188 140 187 73 142 345 283 163 74 38 62 47 56 72 80 31 21 360 350 44 76 136 157 130 75 91 107 86 83 49 45 83 81 337 336 337 316 299 180 187 199 155 164 160 164 164 164 158 127 90 101 110 115 124 136 141 139 141 137 134 131 140 139 92 130 126 119 120 122 117 113 105 103 96 88 76 67 72 86 87 82 73 59
317 228 214 257 178 78 103 8 80 157 119 147 139 26 332 131 182 103 87 215 225 257 94 91 76 71 94 96 61 59 53 28 23 46 30 28 20 55 56 35 44 59 32 44 41 20 12 193 235 308 320 323 316 198 179 119 141 163 159 163 165 166 175 157 140 143 139 135 132 149 162 157 147 149 143 135 159 133 141 134 131 129 128 125 121 114 113 108 102 99 90 80 95 119 118 98 92
313 289 314 15 17 251 347 72 67 317 115 112 98 43 354 69 313 97 295 209 183 221 111 121 102 109 92 71 50 52 57 45 36 47 47 36 28 45 39 37 43 25 36 4 21 32 8 350 6 325 301 313 322 321 72 107 148 168 170 164 163 165 173 172 168 159 170 143 159 173 209 191 155 150 155 155 159 139 143 140 136 133 126 129 115 111 117 111 111 114 115 127 98 222 57 73 89
118 77 315 47 55 61 38 54 87 30 47 137 136 93 344 107 1 111 220 306 310 11 129 137 119 103 76 70 47 51 50 58 44 47 51 42 38 30 35 27 29 30 29 339 11 24 19 5 347 337 331 302 312 312 348 189 151 173 176 164 162 164 164 186 184 168 186 165 162 183 210 147 120 109 136 144 127 128 143 142 138 133 134 128 109 109 116 118 113 116 129 114 127 49 32 27 38
10 310 4 94 53 127 66 69 68 55 10 38 36 71 270 121 95 37 310 339 320 98 33 37 84 78 76 75 63 45 54 50 49 45 49 46 42 34 24 36 29 21 10 342 22 2 10 350 351 332 334 322 311 305 292 220 203 167 159 152 158 167 158 177 194 167 174 195 167 172 189 100 46 116 136 141 154 138 139 142 144 140 147 137 133 139 135 138 139 152 8 74 61 52 47 26 24
326 67 113 74 315 30 96 71 41 69 34 9 46 305 352 47 220 194 229 228 115 60 58 63 73 67 67 56 69 62 52 54 47 41 46 46 41 30 16 14 18 28 351 26 358 356 11 328 347 333 314 311 292 270 279 244 137 152 132 130 143 139 121 105 132 109 120 227 151 162 74 99 134 159 129 165 166 152 150 161 169 161 157 153 173 153 153 174 177 127 85 72 75 73 76 61 36
326 108 62 31 48 14 91 97 50 348 95 268 255 352 32 316 312 283 192 36 126 75 88 92 82 80 88 78 60 67 57 55 52 46 45 43 43 39 14 13 5 19 11 7 9 351 337 346 317 298 296 299 293 243 274 270 120 325 102 83 124 129 138 133 86 47 45 5 31 27 40 59 91 111 143 205 205 147 156 171 174 166 163 159 185 158 153 184 128 103 105 113 117 105 108 116 116
182 292 132 81 8 12 99 87 116 2 349 253 23 358 298 306 273 26 104 110 106 111 103 96 98 92 87 79 71 75 69 57 65 68 58 49 46 55 18 11 0 31 10 359 9 336 353 331 305 280 225 256 276 242 260 241 161 72 34 55 47 61 64 56 62 64 55 42 34 24 110 88 103 86 64 132 230 139 165 176 178 152 145 137 128 128 140 127 113 123 133 137 126 125 112 121 89
271 294 62 65 6 296 102 116 182 206 233 291 71 328 254 229 250 154 121 128 128 117 117 106 117 102 82 77 80 80 73 55 45 68 77 67 32 62 39 23 13 24 13 6 351 357 344 322 288 282 212 245 264 233 239 223 62 62 55 57 57 61 64 58 65 62 56 46 34 29 23 46 42 31 142 202 111 241 186 165 141 127 110 88 96 140 129 126 126 124 116 105 93 76 60 29 83
11 55 308 131 217 216 198 164 194 197 218 201 252 246 255 253 75 285 125 122 124 125 112 136 121 116 102 95 77 79 75 68 50 51 64 61 42 40 36 26 8 20 12 5 352 346 339 313 337 338 273 230 247 229 37 58 65 66 61 59 61 56 60 53 48 50 43 43 37 26 24 28 37 18 24 36 115 128 89 79 64 65 63 45 75 78 84 82 89 87 94 100 94 92 76 13 84
271 12 341 307 278 275 171 223 222 197 204 172 209 233 260 126 118 225 112 131 132 137 136 142 139 110 112 100 82 68 76 56 56 43 46 55 37 31 43 22 12 6 8 3 344 340 332 339 349 344 327 44 45 64 58 59 66 65 60 63 59 60 60 59 51 46 41 39 34 34 34 32 29 25 20 12 48 63 64 61 49 41 44 34 34 42 44 61 60 65 63 70 90 103 117 61 40
28 21 298 263 248 244 239 211 240 165 226 184 188 247 261 136 94 237 143 142 148 141 148 151 136 130 110 105 95 85 71 68 45 51 42 30 31 20 33 25 11 2 9 357 341 347 9 9 360 353 14 50 52 58 60 60 63 67 62 63 64 68 69 66 61 56 50 43 33 39 39 33 43 41 35 33 30 44 56 66 57 46 41 32 42 54 58 60 69 68 64 53 52 114 117 82 17
30 270 299 291 285 233 205 214 212 187 250 139 173 270 239 176 226 114 134 146 162 146 148 152 133 123 115 109 104 72 83 69 66 63 51 49 47 29 30 28 15 3 4 344 350 11 13 6 0 15 28 55 60 59 66 65 68 66 60 55 56 60 63 66 65 58 54 45 38 36 41 41 42 46 46 50 47 46 39 62 62 45 37 25 23 27 63 61 61 48 45 27 13 28 57 29 15
292 246 226 297 269 257 219 178 123 135 159 172 114 281 242 209 135 135 134 158 163 144 152 153 138 136 139 135 121 102 65 85 73 74 62 54 49 35 34 26 21 13 351 352 2 22 12 8 4 33 47 61 61 63 67 70 66 67 63 59 55 58 55 59 60 61 57 52 45 40 36 40 46 44 49 55 53 56 45 39 49 38 23 30 36 27 34 28 36 31 8 28 351 18 51 45 17
243 303 150 232 340 260 44 123 145 163 132 174 168 209 328 112 126 142 165 159 171 161 159 162 151 144 148 133 126 121 103 83 85 76 72 66 49 53 38 30 24 17 6 1 3 18 22 22 14 56 46 69 68 69 72 75 73 72 67 65 59 58 57 55 51 53 56 52 50 45 39 34 35 47 53 57 56 49 47 36 33 26 27 25 42 34 44 42 41 38 30 20 18 29 20 22 22
211 318 256 221 191 332 194 127 166 169 245 226 163 276 243 167 159 156 172 168 182 177 161 160 155 162 153 157 150 133 124 106 96 81 80 78 58 55 56 32 26 14 7 358 5 28 34 32 30 66 55 73 71 70 65 81 73 67 69 68 69 60 62 56 51 52 50 49 46 46 38 39 39 38 45 56 61 55 56 53 36 27 32 44 41 36 40 44 40 44 34 28 33 28 20 14 13
205 174 272 294 208 208 127 202 211 3 130 207 187 239 74 130 155 170 172 179 193 193 165 157 168 160 155 154 155 130 130 125 107 90 71 75 61 66 59 48 28 14 8 9 22 49 40 33 42 47 65 74 81 81 71 71 79 76 73 70 69 66 64 61 56 55 53 51 49 52 46 48 46 48 48 51 60 56 53 55 48 41 41 55 48 43 47 41 48 50 42 35 37 29 24 13 8
255 169 217 219 228 243 224 41 261 186 188 181 224 246 255 142 167 173 185 187 187 205 170 169 157 162 159 146 149 155 147 139 109 97 83 73 76 67 67 56 39 18 15 21 29 60 64 48 57 62 54 68 76 80 78 80 81 82 78 74 72 69 66 66 64 62 58 54 54 54 52 55 58 57 54 54 64 61 62 62 54 43 41 51 55 47 43 36 45 50 58 49 39 31 22 10 354
221 178 198 263 255 225 224 178 190 165 230 255 201 222 252 179 178 182 188 198 190 203 181 165 161 159 151 161 162 154 132 111 106 97 93 89 78 77 67 56 52 32 21 33 20 60 78 59 61 81 78 74 81 85 91 90 88 83 82 79 73 71 68 65 63 65 61 59 56 52 51 52 54 58 58 55 63 62 59 54 52 43 45 51 53 45 37 26 29 40 55 47 43 40 22 6 346
283 321 331 331 333 321 323 46 158 182 175 233 239 240 242 221 177 177 194 196 204 208 167 154 162 155 163 166 152 146 128 105 97 97 93 88 83 75 64 64 55 32 45 37 26 53 73 77 74 71 76 83 82 82 85 90 93 89 88 82 72 66 66 62 59 59 56 56 50 49 46 49 46 46 54 56 57 57 58 54 57 48 44 47 48 44 33 30 24 40 57 55 44 30 25 11 360
286 329 269 275 289 280 289 143 119 144 314 225 243 254 260 267 197 191 185 191 206 214 168 170 167 165 166 163 159 146 128 123 118 118 101 102 93 87 77 67 66 39 51 42 31 53 54 72 73 68 63 52 76 94 84 84 92 93 78 73 81 70 68 69 64 55 55 51 48 49 46 46 43 40 37 43 50 51 52 50 51 48 44 47 50 47 40 36 35 31 33 65 55 39 23 10 1
260 294 296 274 245 271 254 209 194 52 155 264 241 262 258 260 267 174 168 169 206 207 185 182 179 172 165 161 147 141 111 123 135 122 119 98 96 96 81 77 75 62 50 45 37 42 50 50 60 63 53 53 56 58 68 65 57 70 91 79 87 75 68 66 69 58 59 56 52 51 51 48 47 46 41 41 45 46 48 48 47 48 45 47 51 48 42 37 34 32 28 26 49 64 39 13 8
229 221 239 265 254 263 271 111 170 124 106 270 252 257 264 263 265 185 174 188 205 206 186 182 167 167 158 155 147 132 127 143 148 122 116 105 101 99 94 85 78 68 62 52 51 58 60 47 56 62 56 55 53 58 69 79 79 77 86 90 88 92 71 74 77 72 65 65 57 54 53 52 51 50 47 45 48 45 47 51 47 46 49 47 50 45 41 40 31 30 29 34 4 30 62 26 27
276 230 235 235 255 262 289 83 225 183 210 276 356 309 277 272 260 254 197 194 121 51 76 105 149 161 161 164 157 146 152 150 145 148 144 131 121 112 101 95 87 85 76 55 51 79 76 59 66 71 70 66 70 65 77 81 83 85 81 90 84 86 94 80 77 69 64 61 56 53 50 50 51 54 49 48 50 47 46 48 47 45 44 43 49 49 40 35 29 26 24 26 24 33 19 18 28
206 221 236 247 222 232 217 228 194 166 242 232 294 281 270 241 249 236 67 54 97 129 94 72 27 76 111 121 133 157 155 155 148 145 134 136 130 115 108 103 100 90 79 70 67 75 96 92 84 89 87 86 86 89 91 100 102 96 98 96 89 89 74 71 72 62 58 62 65 50 47 48 51 54 51 51 51 50 48 47 48 46 45 40 44 50 49 42 35 32 29 31 31 38 31 20 14
248 218 209 228 236 251 254 281 59 0 306 192 161 315 267 223 222 225 168 130 198 160 160 180 169 125 116 133 145 137 145 147 145 146 149 141 127 118 116 115 109 108 85 59 86 99 100 99 100 100 101 106 114 111 114 110 108 117 108 96 95 86 78 68 67 79 69 62 65 63 55 50 51 53 48 46 46 46 46 45 48 51 49 45 44 50 52 45 35 33 25 38 30 24 50 38 26
243 276 211 206 223 264 317 317 58 307 245 320 5 191 274 359 321 134 187 190 200 168 194 195 177 173 173 178 162 154 145 142 140 135 137 131 135 130 128 124 126 107 104 105 80 82 84 89 87 82 84 80 99 124 116 87 82 85 90 94 99 104 105 87 93 81 87 82 76 65 60 52 50 54 49 49 49 48 51 48 50 53 55 52 47 50 47 42 38 33 24 35 38 31 33 50 37
252 278 3 143 193 204 254 262 208 245 344 271 156 163 275 281 226 243 176 189 198 191 207 201 187 181 182 183 170 162 161 151 138 142 143 138 137 140 136 130 125 112 107 82 77 78 86 92 91 88 75 70 60 73 84 88 94 94 99 101 95 99 100 106 99 97 85 90 81 73 68 60 55 53 56 51 50 49 50 50 49 51 53 48 51 54 52 46 46 36 35 33 37 41 39 46 33
197 299 70 71 93 224 80 183 258 238 350 265 177 152 281 254 241 201 156 201 210 216 201 203 188 177 180 181 163 165 163 157 153 152 149 148 144 131 128 120 116 114 100 97 98 96 91 90 90 82 76 68 64 71 80 80 88 95 100 109 104 91 100 102 98 91 89 83 88 78 76 71 62 54 54 56 49 49 48 51 49 52 50 46 46 50 48 46 48 47 37 33 32 32 41 39 45
211 117 63 84 82 63 192 294 213 299 237 247 175 178 217 274 243 172 185 224 232 219 198 195 181 173 174 172 156 155 151 151 152 143 132 125 118 121 121 115 108 112 116 112 104 101 97 95 92 91 84 80 80 82 89 90 92 100 106 108 112 112 106 100 94 92 91 83 86 84 77 71 65 60 51 50 55 51 54 52 52 51 51 47 44 42 46 46 40 44 46 45 38 39 30 40 41
148 118 90 62 66 140 37 201 89 2 246 237 179 196 173 284 159 183 176 221 219 196 125 151 161 158 164 163 153 155 152 150 146 141 132 120 115 119 125 127 126 120 127 121 114 114 112 106 106 100 99 95 93 96 98 101 103 111 114 116 115 117 115 115 113 101 99 96 92 88 84 81 75 69 59 50 52 49 50 53 56 53 51 51 49 42 35 45 45 45 45 44 44 42 34 37 30
131 141 121 111 1 48 4 285 173 196 263 184 190 196 198 227 282 12 152 359 52 150 160 163 169 169 165 159 156 155 153 153 144 139 138 136 136 141 131 131 138 138 123 122 123 117 117 119 116 109 103 104 104 105 103 104 110 110 110 113 115 119 123 123 120 121 123 114 111 102 95 88 77 71 61 59 47 46 52 53 52 57 52 46 45 41 35 34 49 44 44 47 41 34 32 43 34
151 123 114 126 224 73 275 146 221 206 246 298 359 197 222 241 229 235 191 183 54 34 166 168 164 162 159 152 155 154 156 156 151 149 146 149 152 154 147 145 140 148 143 139 133 127 123 122 121 115 112 109 105 107 108 109 108 110 115 115 113 113 113 115 119 116 119 112 110 105 96 90 79 72 60 66 54 52 58 58 53 51 47 41 40 41 35 30 41 51 44 46 46 36 28 41 48
173 163 161 140 197 213 246 194 217 251 254 287 239 312 272 332 267 233 223 122 102 28 92 153 156 158 156 154 156 157 162 164 159 152 153 158 158 159 149 147 149 147 146 141 138 134 132 125 124 116 119 116 114 109 111 109 105 106 104 106 107 108 107 105 103 106 103 98 98 98 95 95 93 89 82 70 72 68 58 60 62 58 54 50 42 36 39 33 33 59 49 49 50 30 21 29 48
199 179 172 187 174 180 224 194 217 226 209 244 269 119 232 127 244 11 62 80 36 348 80 117 131 138 142 146 147 151 159 164 159 155 161 162 161 158 151 152 150 148 147 144 140 139 132 127 126 124 122 121 117 115 111 109 108 105 104 101 101 98 100 97 93 92 96 96 91 96 95 92 94 90 82 78 65 76 75 69 63 61 55 53 47 39 32 30 24 49 50 41 47 49 6 29 25
205 190 180 215 214 106 223 170 75 26 341 272 258 198 212 193 36 79 75 75 46 10 101 119 124 131 139 149 160 164 164 163 158 158 160 158 159 152 150 151 150 150 147 147 146 142 135 135 132 131 130 128 123 120 117 116 110 103 96 97 95 95 93 90 86 80 79 84 91 94 96 94 92 92 82 81 64 63 73 78 70 65 62 56 56 51 41 30 17 60 45 52 34 14 3 17 49
203 150 215 204 36 191 263 11 87 81 1 254 148 288 295 316 260 162 150 105 99 308 133 128 138 143 148 161 166 168 167 164 162 161 161 156 154 154 155 150 151 150 150 153 151 147 143 141 139 134 131 128 126 123 119 116 114 109 103 100 98 96 96 98 100 94 90 84 86 85 90 95 92 90 95 84 76 64 67 78 84 78 67 64 57 48 39 27 20 64 60 69 43 2 6 14 53
107 195 213 101 66 69 159 231 53 182 242 261 157 203 237 148 261 148 146 169 167 189 199 150 150 157 165 173 174 173 169 165 157 154 156 156 155 153 150 150 152 153 151 147 148 147 143 145 144 137 138 134 130 125 123 123 118 111 107 101 96 99 102 100 99 101 99 100 95 93 91 92 97 94 96 94 94 89 75 77 86 87 75 67 70 51 42 24 36 40 46 76 65 28 14 3 21
131 182 196 137 247 234 219 88 239 204 225 262 226 204 224 192 215 138 202 193 191 186 190 170 167 177 177 170 172 171 158 154 163 165 162 161 161 159 155 153 148 146 147 144 144 140 138 136 138 138 136 135 131 126 120 111 110 111 108 107 106 103 99 100 100 100 103 104 104 106 113 114 104 99 91 90 89 87 91 90 86 81 84 77 65 67 51 29 45 46 33 47 31 28 19 351 341
46 82 331 247 90 226 161 196 321 140 255 54 273 148 248 193 213 183 198 198 184 174 180 198 184 181 175 173 174 174 170 170 171 169 166 162 159 158 155 153 154 154 150 146 140 136 137 137 137 132 124 122 120 121 122 118 114 112 109 102 97 100 101 105 105 106 106 107 112 113 110 101 99 95 94 93 96 94 94 98 91 84 77 75 65 51 47 32 42 48 42 51 10 22 15 353 338
218 155 211 212 189 291 93 279 191 174 205 221 268 268 266 229 254 184 193 186 180 177 187 188 182 182 182 180 177 177 175 173 174 171 166 162 158 156 154 152 147 143 141 138 143 146 143 140 137 138 137 133 128 126 121 121 119 117 114 112 113 110 107 104 105 105 108 109 106 102 104 111 103 99 106 98 91 97 96 96 88 83 77 72 67 51 41 40 45 38 18 62 21 7 6 330 349
189 185 196 189 168 173 164 248 161 219 154 235 175 252 266 241 5 40 147 183 176 187 178 176 176 176 180 181 183 181 176 176 171 169 164 160 159 157 153 144 143 145 148 148 153 147 146 147 146 140 135 138 134 131 131 128 124 121 119 118 114 110 107 105 107 108 108 106 108 116 126 114 112 104 98 104 100 89 80 81 86 77 74 72 61 68 53 47 53 29 15 14 38 8 351 338 353